Change the Weather History Date:

Saturday, January 11, 2014

  Actual Average Record
Temperature  
Mean Temperature 42 °F -  
Max Temperature 48 °F 35 °F 61 °F (2013)
Min Temperature 36 °F 18 °F -19 °F (1977)
Degree Days  
Heating Degree Days 23    
Moisture  
Dew Point 38 °F    
Average Humidity 92    
Maximum Humidity 100    
Minimum Humidity 55    
Precipitation  
Precipitation 0.00 in - - ()
Sea Level Pressure  
Sea Level Pressure 29.65 in    
Wind  
Wind Speed 4 mph (West)    
Max Wind Speed 13 mph    
Max Gust Speed 22 mph    
Visibility 8 miles    
Events Rain    
Averages and records for this station are not official NWS values.
T = Trace of Precipitation, MM = Missing Value Source: NWS Daily Summary

Daily Weather History Graph

Daily Weather History Graph

Search for Another Location

Airport or City:

Trip Planner

Search our weather history database for the weather conditions in past years. The results will help you decide how hot, cold, wet, or windy it might be!

Date:

Astronomy

Jan. 11, 2014 Rise Set
Actual Time 7:16 AM CST 4:58 PM CST
Civil Twilight 6:47 AM CST 5:27 PM CST
Nautical Twilight 6:14 AM CST 6:00 PM CST
Astronomical Twilight 5:42 AM CST 6:32 PM CST
Moon 1:42 PM CST (1/11) 3:22 AM CST (1/11)
Length of Visible Light 10h 40m
Length of Day
9h 41m
Waxing Gibbous, 83% of the Moon is Illuminated
Jan 11
Waxing Gibbous
Jan 15
Full
Jan 23
Last Quarter
Jan 30
New
Feb 6
First Quarter

Hourly Weather History & Observations

Time (CST) Temp. Windchill Dew Point Humidity Pressure Visibility Wind Dir Wind Speed Gust Speed Precip Events Conditions
12:23 AM 42.8 °F - 42.8 °F 100% 29.55 in 8.0 mi Variable 1.2 mph - N/A   Overcast
12:33 AM 41.0 °F - 41.0 °F 100% 29.54 in 4.0 mi SSW 2.3 mph - N/A   Overcast
12:43 AM 42.8 °F - 42.8 °F 100% 29.54 in 2.5 mi Calm Calm - N/A   Overcast
12:48 AM 42.8 °F - 42.8 °F 100% 29.54 in 1.8 mi Variable 2.3 mph - N/A   Overcast
12:53 AM 42.8 °F - 42.8 °F 100% 29.54 in 2.5 mi Variable 1.2 mph - N/A   Overcast
12:58 AM 41.9 °F - 41.9 °F 100% 29.55 in 7.0 mi Calm Calm - N/A   Overcast
1:08 AM 42.8 °F - 42.8 °F 100% 29.54 in 3.0 mi Variable 1.2 mph - N/A   Mostly Cloudy
1:13 AM 42.8 °F - 42.8 °F 100% 29.54 in 2.5 mi Variable 2.3 mph - N/A   Overcast
1:18 AM 42.8 °F - 42.8 °F 100% 29.53 in 5.0 mi Variable 1.2 mph - N/A   Overcast
1:23 AM 42.8 °F - 42.8 °F 100% 29.54 in 10.0 mi Variable 2.3 mph - N/A   Overcast
1:33 AM 41.0 °F - 41.0 °F 100% 29.54 in 7.0 mi Variable 2.3 mph - N/A   Mostly Cloudy
1:43 AM 41.0 °F - 41.0 °F 100% 29.54 in 10.0 mi Variable 1.2 mph - N/A   Mostly Cloudy
1:58 AM 41.0 °F - 41.0 °F 100% 29.56 in 9.0 mi Calm Calm - N/A   Mostly Cloudy
2:03 AM 39.2 °F - 39.2 °F 100% 29.54 in 6.0 mi Calm Calm - N/A   Overcast
2:13 AM 41.0 °F - 41.0 °F 100% 29.55 in 2.5 mi Calm Calm - N/A   Overcast
2:18 AM 41.0 °F - 41.0 °F 100% 29.55 in 2.5 mi Calm Calm - N/A   Overcast
2:23 AM 41.0 °F - 41.0 °F 100% 29.55 in 2.5 mi Calm Calm - N/A   Overcast
2:28 AM 41.0 °F - 41.0 °F 100% 29.55 in 1.5 mi Variable 1.2 mph - N/A   Overcast
2:33 AM 41.0 °F 38.0 °F 41.0 °F 100% 29.56 in 1.8 mi NW 4.6 mph - N/A   Overcast
2:38 AM 41.0 °F 39.0 °F 41.0 °F 100% 29.56 in 3.0 mi West 3.5 mph - N/A   Overcast
2:48 AM 41.0 °F 38.0 °F 41.0 °F 100% 29.56 in 5.0 mi West 4.6 mph - N/A   Overcast
2:53 AM 41.0 °F 39.0 °F 41.0 °F 100% 29.56 in 7.0 mi Variable 3.5 mph - N/A   Overcast
2:58 AM 40.8 °F 38.8 °F 40.8 °F 100% 29.58 in 10.0 mi Variable 3.5 mph - N/A   Overcast
3:58 AM 41.4 °F 37.6 °F 41.0 °F 99% 29.60 in 10.0 mi Variable 5.8 mph - N/A   Overcast
4:03 AM 41.0 °F 38.0 °F 41.0 °F 100% 29.58 in 10.0 mi Variable 4.6 mph - N/A   Overcast
4:58 AM 40.1 °F 36.1 °F 39.4 °F 97% 29.61 in 10.0 mi Variable 5.8 mph - N/A   Overcast
5:08 AM 39.2 °F 35.9 °F 39.2 °F 100% 29.60 in 10.0 mi Variable 4.6 mph - N/A   Overcast
5:31 AM 39.2 °F 35.0 °F 39.2 °F 100% 29.61 in 10.0 mi Variable 5.8 mph - N/A   Overcast
5:36 AM 39.2 °F 34.2 °F 39.2 °F 100% 29.61 in 8.0 mi Variable 6.9 mph - N/A   Light Drizzle
5:51 AM 39.2 °F 35.0 °F 39.2 °F 100% 29.62 in 6.0 mi Variable 5.8 mph - N/A Rain Light Rain
5:58 AM 38.7 °F 35.2 °F 38.5 °F 99% 29.64 in 7.0 mi Variable 4.6 mph - 0.00 in Rain Light Rain
6:04 AM 39.2 °F 35.0 °F 37.4 °F 93% 29.63 in 9.0 mi West 5.8 mph - N/A   Overcast
6:14 AM 39.2 °F 35.0 °F 37.4 °F 93% 29.63 in 10.0 mi Variable 5.8 mph - N/A   Overcast
6:44 AM 37.4 °F 29.8 °F 37.4 °F 100% 29.64 in 10.0 mi WNW 11.5 mph 21.9 mph N/A   Overcast
6:58 AM 38.1 °F 30.2 °F 37.9 °F 99% 29.66 in 10.0 mi WNW 12.7 mph 20.7 mph 0.00 in   Overcast
7:53 AM 37.4 °F 32.8 °F 37.4 °F 100% 29.66 in 10.0 mi WNW 5.8 mph - N/A   Mostly Cloudy
7:58 AM 36.9 °F 32.2 °F 36.5 °F 99% 29.68 in 10.0 mi NW 5.8 mph - N/A   Mostly Cloudy
8:58 AM 36.9 °F 29.6 °F 35.6 °F 95% 29.72 in 10.0 mi WNW 10.4 mph 17.3 mph N/A   Overcast
9:03 AM 37.4 °F 30.3 °F 35.6 °F 93% 29.70 in 10.0 mi West 10.4 mph 17.3 mph N/A   Overcast
9:58 AM 37.4 °F 30.8 °F 36.5 °F 97% 29.75 in 10.0 mi West 9.2 mph - N/A   Overcast
10:58 AM 38.3 °F 32.5 °F 36.9 °F 95% 29.76 in 10.0 mi West 8.1 mph - N/A   Overcast
11:08 AM 39.2 °F 32.5 °F 37.4 °F 93% 29.74 in 10.0 mi West 10.4 mph - N/A   Overcast
11:38 AM 41.0 °F 35.2 °F 37.4 °F 87% 29.73 in 10.0 mi West 9.2 mph 19.6 mph N/A   Scattered Clouds
11:58 AM 41.7 °F 35.6 °F 35.6 °F 79% 29.74 in 10.0 mi West 10.4 mph 18.4 mph N/A   Partly Cloudy
12:58 PM 44.8 °F 40.4 °F 35.1 °F 69% 29.73 in 10.0 mi West 8.1 mph - N/A   Clear
1:58 PM 46.8 °F - 34.0 °F 61% 29.73 in 10.0 mi WSW 8.1 mph - N/A   Clear
2:58 PM 48.2 °F - 33.4 °F 57% 29.75 in 10.0 mi West 10.4 mph - N/A   Clear
3:58 PM 47.7 °F - 32.2 °F 55% 29.76 in 10.0 mi WSW 6.9 mph - N/A   Clear
4:58 PM 43.5 °F 41.9 °F 32.4 °F 65% 29.78 in 10.0 mi WSW 3.5 mph - N/A   Clear
5:58 PM 40.1 °F 38.0 °F 31.3 °F 71% 29.81 in 10.0 mi West 3.5 mph - N/A   Clear
6:58 PM 41.9 °F 35.9 °F 32.0 °F 68% 29.84 in 10.0 mi West 10.4 mph - N/A   Clear
7:58 PM 40.8 °F 36.2 °F 32.7 °F 73% 29.88 in 10.0 mi West 6.9 mph - N/A   Clear
8:58 PM 40.5 °F 36.5 °F 32.0 °F 72% 29.90 in 10.0 mi Variable 5.8 mph - N/A   Clear
9:58 PM 39.0 °F 34.8 °F 31.8 °F 75% 29.93 in 10.0 mi West 5.8 mph - N/A   Clear
10:58 PM 37.8 °F 31.8 °F 31.3 °F 77% 29.93 in 10.0 mi WNW 8.1 mph - N/A   Clear
11:58 PM 37.2 °F 32.6 °F 30.9 °F 78% 29.94 in 10.0 mi WNW 5.8 mph - N/A   Clear